Wind_Speed
20 19 17 16 15 14 13 11 9 8 7 7 7 7 7 7 7 7 8 9 9 8 7 8 9 11 12 12 12 13 13 14 15 15 16 16 16 17 17 18 18 18 18 17 16 16 16 15 15 15 15 15 15 15 14 14 14 14 14 14 14 14 13 13 13 13 13 13 13 13 13 13 14 13 13 14 14 15 15 15 15 16 16 16 15
21 20 18 17 16 15 13 12 10 8 8 8 8 8 7 7 7 7 8 9 9 9 8 9 10 11 11 11 11 12 12 13 14 14 15 16 16 16 17 17 18 18 18 17 16 16 16 17 16 16 16 16 16 16 16 16 15 15 15 14 15 14 14 14 14 13 13 13 13 13 13 13 14 13 14 14 15 15 15 15 15 16 16 16 16
21 20 19 18 17 15 13 11 10 9 8 8 8 8 8 7 7 8 9 9 10 10 9 9 10 11 11 11 11 11 11 12 12 13 14 15 14 15 16 16 17 18 18 17 17 17 17 18 18 18 18 18 18 17 17 17 16 16 16 16 16 15 15 15 15 15 14 14 14 14 14 14 14 14 14 15 15 16 15 15 15 16 16 17 16
22 21 20 19 18 15 13 12 11 9 8 8 8 8 8 7 7 8 9 10 10 10 10 10 11 11 11 10 10 10 11 11 11 11 12 13 13 13 14 15 16 17 17 18 18 18 18 18 19 19 19 19 19 19 18 18 17 17 17 16 16 16 16 16 15 15 15 15 15 15 15 15 15 15 15 16 16 16 16 15 15 16 16 17 16
23 22 21 20 18 15 13 12 11 10 8 8 8 8 8 8 8 8 10 11 11 12 11 11 11 11 11 10 9 9 9 9 10 10 10 10 11 12 12 13 15 16 16 17 18 18 18 18 19 20 20 20 20 20 19 19 18 18 17 17 17 16 16 16 16 16 15 16 16 16 16 16 16 16 16 17 17 16 16 15 15 16 16 17 17
23 23 22 20 17 15 13 12 11 10 9 9 9 9 9 9 9 9 10 11 12 12 12 12 11 11 11 10 9 8 7 7 8 8 8 9 9 10 10 11 13 14 15 16 17 17 18 18 19 19 20 20 20 20 20 20 19 19 18 18 18 17 17 16 16 16 16 16 16 16 16 16 16 17 17 17 17 16 16 15 15 16 16 17 17
24 24 22 20 17 14 13 12 11 10 9 10 10 10 10 10 10 10 11 11 12 13 13 13 12 11 11 10 9 8 7 6 6 6 7 7 8 8 8 9 11 12 13 14 15 16 17 17 18 19 19 20 20 20 20 21 20 20 20 19 19 19 18 17 17 16 16 16 16 16 16 17 17 17 17 17 17 17 16 15 15 15 16 17 17
26 24 23 20 17 15 14 13 12 11 10 10 10 10 11 11 11 11 11 11 12 13 14 14 13 12 11 11 10 9 7 6 6 5 6 6 6 6 7 8 9 10 11 13 14 14 15 16 17 18 19 19 19 20 20 20 21 21 21 21 20 20 20 19 19 18 17 17 16 16 16 17 17 18 18 18 18 17 16 16 15 15 16 17 17
26 25 23 20 17 16 15 15 14 13 12 11 10 10 11 12 12 11 11 11 12 13 14 14 13 13 12 11 10 9 8 8 7 6 5 5 5 5 5 6 7 8 10 11 12 13 14 15 16 17 18 19 19 20 20 20 20 21 21 21 21 21 21 20 20 20 19 18 17 17 17 17 17 18 19 19 19 18 17 16 16 16 16 16 17
26 25 23 20 18 16 15 15 14 14 13 12 11 10 10 11 12 11 11 10 11 13 14 14 14 13 12 12 11 9 8 8 8 8 7 6 5 4 4 5 6 7 8 10 11 11 12 13 14 15 17 18 19 20 20 20 20 21 21 21 21 21 21 20 20 21 20 20 19 19 18 18 18 18 19 19 20 19 19 18 17 16 16 16 16
26 25 23 21 19 17 16 15 15 14 14 13 11 10 10 11 11 11 11 10 11 12 13 15 15 15 13 12 11 10 9 9 10 9 8 7 6 5 3 3 4 5 6 8 9 9 10 11 12 14 15 17 18 19 20 20 21 21 21 21 21 21 20 20 20 20 20 21 21 20 19 19 19 19 19 20 20 21 20 19 18 17 16 16 16
26 25 24 22 20 18 17 17 16 15 15 14 13 12 11 11 11 11 11 11 11 11 13 14 15 15 14 13 12 11 11 10 11 10 9 8 6 5 3 2 2 4 5 5 6 7 8 9 11 12 13 15 17 19 20 20 20 21 21 21 21 20 20 20 20 20 20 20 21 21 21 20 20 20 20 21 21 21 21 21 19 18 17 16 16
26 26 25 23 21 19 18 17 17 16 15 14 14 13 12 11 11 11 11 11 11 11 11 13 14 15 15 14 13 12 12 11 12 11 10 9 7 6 4 2 2 2 3 3 4 6 7 8 9 11 12 14 16 18 19 19 20 20 20 20 20 20 20 20 20 20 20 20 20 20 21 21 21 21 21 22 22 22 22 21 21 20 18 17 17
27 27 27 25 22 20 19 18 17 16 15 14 14 14 13 12 11 11 11 11 11 10 11 12 13 14 15 15 14 13 13 13 13 12 11 9 8 6 5 4 2 2 1 1 2 4 6 7 8 9 11 13 15 16 18 19 20 20 19 19 19 19 19 19 19 19 19 20 20 20 20 20 21 21 21 22 22 22 22 21 22 21 20 19 18
28 28 28 26 23 21 20 18 16 16 15 14 13 13 14 13 12 11 11 11 11 10 11 12 13 13 14 15 15 15 14 14 14 13 12 10 8 7 6 5 4 2 2 1 1 2 3 5 6 6 8 10 12 14 16 18 20 20 20 20 19 19 19 19 19 19 19 19 20 20 20 20 20 21 21 22 23 23 22 21 22 22 21 21 20
28 29 29 28 25 22 20 18 17 16 15 14 13 12 13 13 13 13 11 10 10 10 11 11 12 13 14 14 15 15 14 15 15 14 12 11 9 8 7 5 4 3 3 3 2 1 2 3 4 5 6 8 10 12 15 17 19 21 22 21 21 19 18 18 18 18 18 18 19 20 20 20 20 20 21 21 22 23 22 22 21 21 22 22 21
28 29 30 30 27 22 19 19 19 17 16 15 14 12 12 12 13 14 13 11 11 10 10 11 12 13 13 14 15 15 14 15 15 14 13 12 10 9 8 6 6 5 4 4 4 3 2 2 3 4 5 7 9 12 14 16 18 21 22 22 22 21 19 18 17 17 17 17 18 19 20 20 20 20 21 21 21 22 22 22 21 21 21 21 22
28 29 30 29 25 21 21 21 20 18 17 16 16 14 12 12 13 14 14 13 12 11 11 11 12 13 14 14 15 15 14 15 16 15 14 13 12 11 9 8 7 7 6 6 6 5 3 3 3 3 4 7 9 11 13 15 17 20 22 23 22 22 21 19 17 17 16 16 17 18 19 20 20 20 20 21 21 21 21 21 21 20 21 21 22
27 28 27 25 23 22 22 21 20 19 18 17 17 16 14 13 13 14 14 14 12 11 10 10 11 12 13 14 15 15 16 16 16 16 15 14 13 12 11 10 9 9 8 8 7 6 5 5 5 5 6 7 9 11 12 14 16 18 21 23 22 22 21 20 19 17 16 16 17 17 18 19 20 20 20 20 20 20 20 20 20 20 20 21 22
26 26 24 23 22 23 23 21 21 20 19 18 17 17 15 14 14 14 14 13 12 10 9 9 8 9 11 12 13 15 16 17 17 17 16 15 14 13 13 12 11 11 10 10 9 8 8 7 7 8 9 9 11 12 13 15 16 18 20 22 22 21 20 20 19 18 17 17 17 17 18 19 20 20 20 20 20 20 20 19 19 19 19 20 21
26 25 24 24 25 26 25 24 23 21 21 20 18 18 16 15 15 15 14 12 11 11 11 10 9 9 10 10 10 11 14 16 17 17 17 16 15 15 14 13 13 12 12 11 11 10 10 10 10 11 12 13 14 15 16 17 17 18 20 22 23 22 20 19 19 18 17 16 16 17 18 19 20 20 20 20 19 19 19 19 19 19 19 19 20
25 25 25 27 28 28 27 26 25 23 22 22 20 20 18 17 17 16 15 13 12 14 15 14 13 13 12 11 10 9 10 13 16 17 17 17 17 16 15 15 14 14 14 13 13 12 12 11 12 13 14 15 16 18 18 19 19 19 21 22 24 24 22 20 19 18 17 16 16 16 17 19 19 20 21 20 19 18 18 19 19 19 19 20 20
26 27 27 28 28 28 28 27 26 25 24 23 23 22 21 20 19 17 16 14 14 15 16 16 16 15 13 13 12 10 9 10 13 16 18 18 18 18 17 16 16 16 15 15 15 14 14 13 13 14 15 16 18 19 20 20 20 20 21 22 23 23 22 21 20 18 17 16 16 17 17 18 19 20 21 21 20 18 17 18 18 18 19 20 20
27 29 29 29 28 29 29 29 28 27 26 25 25 24 24 22 20 19 17 16 16 16 16 17 16 15 14 14 14 13 12 11 12 15 17 18 19 19 19 18 18 18 17 17 17 16 16 15 16 17 17 18 18 20 21 21 21 21 20 21 22 22 21 21 20 19 17 17 17 17 17 18 18 19 20 21 21 20 18 17 17 18 18 19 20
29 31 31 30 30 30 31 31 31 30 29 28 26 26 26 25 23 21 19 19 19 18 19 19 17 15 16 16 16 15 15 14 14 15 17 19 20 21 20 20 20 20 20 19 19 19 18 18 18 19 19 19 19 20 21 22 22 22 21 21 21 21 19 19 19 19 18 17 16 16 17 17 18 19 19 20 20 20 19 18 17 17 18 19 19
25 28 30 31 31 33 33 33 33 33 32 29 28 27 27 27 26 24 22 21 21 21 21 21 19 17 17 18 17 18 17 16 16 17 18 20 22 23 23 22 22 23 22 21 21 21 21 21 21 21 21 21 21 21 22 22 23 23 22 21 21 21 19 18 18 18 18 17 16 16 16 17 17 18 18 19 20 20 20 19 18 17 17 17 18
17 19 22 24 26 29 33 35 34 33 32 32 30 29 28 28 28 27 26 24 24 24 24 23 21 19 19 20 20 20 20 18 18 18 19 21 22 24 24 25 24 24 25 24 23 23 24 24 24 24 24 23 23 23 23 24 23 23 22 21 21 20 20 19 18 18 18 18 16 15 15 16 17 17 17 18 19 20 20 19 19 18 17 17 17
17 16 16 17 18 20 25 30 33 32 32 32 31 29 29 29 29 28 28 27 27 26 26 26 25 22 21 21 21 22 21 21 20 20 20 21 22 24 25 26 26 26 27 27 26 26 26 26 26 26 26 26 26 26 25 25 25 24 23 22 22 21 21 20 19 18 18 17 17 16 16 15 16 16 16 17 18 19 20 20 19 18 17 17 17
16 16 14 14 13 12 14 20 25 27 29 31 32 31 31 29 27 27 27 28 29 30 30 28 27 25 23 22 22 22 23 23 23 23 22 22 22 24 25 26 26 27 28 28 28 28 28 28 28 28 27 27 28 28 28 27 27 26 25 24 23 22 22 22 21 20 19 18 17 16 16 16 16 16 16 17 17 18 19 19 20 19 17 17 16
16 17 14 12 11 9 8 12 16 17 19 23 27 27 27 25 24 23 23 24 26 29 32 32 30 27 25 24 23 24 25 25 25 25 25 24 24 24 25 26 27 27 29 29 29 29 30 30 30 30 29 28 28 29 29 29 29 29 28 26 26 25 24 24 23 22 21 21 19 17 16 16 16 16 16 16 16 17 17 18 19 19 18 17 16
16 16 13 11 11 10 8 9 12 14 14 16 17 18 19 19 19 20 22 23 23 24 28 32 34 32 29 27 26 26 26 25 26 27 28 28 27 26 26 27 28 28 29 30 29 30 31 31 31 32 31 29 28 28 29 29 30 31 30 29 28 27 26 26 26 25 24 24 23 21 19 18 17 17 17 17 17 17 17 17 18 19 19 18 18
14 14 12 11 12 12 10 10 12 14 15 15 15 15 17 18 19 19 21 22 22 23 27 31 36 38 37 34 32 31 29 27 26 26 28 30 31 30 29 29 29 30 31 31 30 31 32 33 33 34 34 33 30 29 28 29 30 31 31 30 29 28 28 28 29 28 28 27 27 26 24 21 20 19 20 20 19 18 18 18 18 18 19 19 19
15 13 12 13 16 16 14 12 12 13 14 14 15 15 16 18 19 20 21 21 21 22 25 29 34 37 38 37 36 36 35 33 30 27 27 30 32 33 33 32 32 32 33 33 32 32 33 34 35 36 37 37 35 32 30 29 30 31 32 31 30 29 28 28 29 30 30 30 30 30 29 27 25 23 22 22 22 21 20 19 18 18 18 19 20
20 17 16 17 19 19 17 14 13 13 14 15 16 16 16 18 20 21 22 22 21 22 23 25 29 33 36 36 36 37 38 36 34 32 29 30 32 34 35 35 35 35 36 36 35 35 35 35 36 38 39 39 39 37 35 32 30 32 33 33 32 31 30 28 28 29 30 31 31 32 33 32 31 28 26 25 25 24 23 22 21 20 19 19 20
23 22 22 22 21 20 18 16 15 15 16 17 18 18 19 20 22 23 24 23 22 22 22 23 25 29 35 36 35 37 39 37 36 35 33 32 33 34 35 36 37 37 38 39 39 38 37 37 39 40 40 40 40 39 38 37 35 34 34 35 35 34 32 30 29 30 31 32 32 32 33 34 34 33 32 29 28 27 26 25 24 23 22 21 21
27 26 26 25 24 23 21 20 19 18 19 20 21 22 23 23 24 25 27 27 25 24 24 24 23 26 31 35 37 39 39 38 38 38 36 35 34 35 35 36 37 38 39 40 41 41 42 41 40 39 39 40 42 43 41 41 41 38 36 37 38 38 36 34 32 32 33 34 34 33 33 35 36 36 36 34 32 30 29 28 27 26 25 24 23
30 30 29 28 28 26 24 23 21 21 22 23 24 25 25 25 25 25 27 29 28 27 26 26 25 25 27 31 37 41 40 39 40 41 40 39 38 37 36 36 37 38 39 40 41 43 44 43 41 40 40 41 43 45 43 42 41 40 38 37 38 40 40 38 36 35 35 35 37 37 36 36 37 37 37 36 35 34 33 31 30 30 29 27 27
32 32 32 32 31 29 27 25 24 25 26 27 27 27 27 27 27 26 26 28 28 28 28 28 28 28 28 29 33 38 41 41 42 42 42 43 42 40 39 39 39 39 39 41 42 43 44 44 44 44 45 45 45 45 44 44 44 44 44 43 41 40 40 40 40 41 39 36 37 39 40 40 40 39 39 38 37 36 35 34 34 33 32 32 31
34 34 34 34 33 32 31 30 29 29 30 30 30 30 30 30 30 28 27 27 27 28 29 29 30 30 30 30 31 34 38 40 42 43 44 44 43 43 44 44 43 42 42 42 44 45 45 44 46 47 47 47 48 47 47 48 47 47 48 50 48 46 44 44 44 42 38 34 35 39 42 42 42 42 42 41 39 38 37 36 35 35 35 36 35
35 35 35 35 35 34 34 34 33 33 33 32 33 33 33 33 33 32 32 30 29 29 30 29 31 32 33 33 33 33 35 38 42 44 44 44 45 46 47 45 42 42 44 45 45 46 47 46 46 47 48 49 49 48 49 50 49 47 49 51 51 49 51 51 46 40 36 34 36 40 43 44 45 45 45 43 43 42 41 39 38 37 37 38 38
37 36 37 37 37 37 37 36 36 36 35 35 35 35 36 36 36 36 36 35 32 31 30 31 32 35 36 36 36 36 36 38 41 42 43 44 46 47 46 44 42 42 44 46 47 47 47 46 46 46 47 49 50 49 49 49 49 49 51 52 51 50 53 54 49 44 43 43 43 42 44 46 48 48 46 45 46 46 43 41 40 40 40 40 40
38 38 38 38 39 39 39 39 38 38 38 37 37 37 38 38 39 39 39 38 36 34 33 34 35 37 38 39 39 39 39 38 39 40 41 43 46 45 45 45 44 43 44 45 45 46 46 46 45 46 47 48 50 49 49 49 49 50 52 52 52 53 54 55 52 50 51 52 50 47 46 46 48 49 47 46 47 47 45 43 42 43 44 43 42
39 39 39 40 40 40 40 40 41 41 40 40 40 39 40 41 41 41 41 40 39 38 37 36 37 38 39 41 41 42 41 40 40 41 41 42 44 46 46 46 46 45 45 44 45 45 46 46 45 47 48 48 47 48 49 49 48 49 50 51 52 53 54 54 53 50 52 54 53 53 51 48 48 50 48 46 46 45 44 43 43 44 45 44 44
40 40 40 40 40 41 41 41 41 42 42 42 42 42 42 42 43 43 43 42 41 41 40 40 40 40 41 42 42 43 44 43 43 44 43 42 43 45 47 47 47 46 45 46 46 46 46 47 46 46 47 47 46 47 48 49 48 48 49 48 49 50 51 52 52 50 50 51 53 55 52 48 48 51 50 46 45 44 43 42 41 42 42 43 44
41 41 41 41 41 41 41 41 42 42 43 43 44 44 44 45 45 45 45 44 43 43 42 42 42 42 43 44 43 44 45 45 45 45 44 43 43 44 45 46 47 47 47 47 47 47 48 49 48 46 46 46 46 45 46 49 50 49 48 48 48 49 49 50 51 50 49 50 53 55 53 50 50 51 48 43 42 44 44 44 43 43 43 43 43
41 41 42 42 42 42 42 42 42 43 43 44 44 44 45 46 47 47 47 47 46 44 44 45 45 45 45 45 45 45 46 46 47 47 46 45 44 44 44 45 47 48 48 48 48 48 49 49 49 48 48 48 48 47 46 48 49 49 49 49 49 50 50 50 51 51 51 52 53 55 56 55 54 54 52 47 44 45 45 45 46 47 48 47 45
41 42 42 42 43 43 43 44 44 44 44 44 44 45 45 46 48 49 50 50 49 48 47 47 47 46 46 46 47 47 47 48 48 48 48 47 47 46 47 47 48 48 49 50 51 51 51 51 50 49 49 50 50 50 49 49 50 50 51 51 51 51 50 50 51 51 50 51 53 55 57 57 56 56 55 52 49 48 46 45 45 47 48 48 49
42 42 43 43 43 44 44 45 45 46 46 46 45 45 46 46 48 50 52 53 53 51 49 48 48 48 48 48 48 48 49 49 50 51 51 51 51 50 50 50 50 50 50 51 53 55 55 55 54 53 52 51 52 52 52 53 53 53 53 54 54 53 52 51 52 51 49 50 53 56 57 55 52 52 52 50 49 49 47 45 44 44 45 47 49
41 42 43 44 44 44 45 46 46 46 47 47 48 47 47 47 48 51 53 54 54 54 52 51 50 49 49 49 49 49 50 50 51 52 54 55 55 54 54 54 54 54 54 54 55 55 57 58 58 57 56 55 55 55 54 55 55 56 57 57 56 56 55 54 53 51 49 49 50 53 55 53 49 47 47 47 47 48 47 44 42 41 42 44 45
36 38 40 41 42 43 44 45 45 46 46 47 47 47 47 47 48 50 53 54 55 55 54 53 52 51 51 52 52 52 52 51 52 53 55 56 57 57 57 57 57 58 59 59 59 58 58 59 59 60 59 59 59 58 57 56 56 56 58 58 58 59 59 57 56 55 52 49 49 51 54 53 50 46 45 45 46 46 45 43 41 41 41 41 41
31 32 34 36 38 39 40 41 42 43 44 44 45 45 46 46 46 48 51 53 54 55 55 55 54 53 53 54 54 54 54 53 53 54 55 56 57 58 59 59 59 60 61 62 62 62 62 61 61 62 62 61 61 61 60 59 57 57 58 59 60 61 60 60 60 60 57 52 50 52 54 54 53 50 48 48 47 46 45 44 43 43 43 43 41
Wind_Direction
229 230 229 231 233 234 231 228 221 205 199 198 193 193 192 193 187 178 175 169 166 164 152 141 137 129 123 118 112 105 98 92 86 81 77 75 75 75 74 72 71 70 68 65 62 60 58 56 53 51 49 47 44 42 42 40 38 37 35 35 35 34 32 31 32 33 35 35 35 34 31 30 30 28 26 24 21 20 17 15 14 15 15 14 14
232 233 232 232 231 231 229 228 224 211 202 201 197 197 197 193 183 177 175 173 170 165 157 147 141 134 127 125 119 112 105 98 92 87 83 79 76 75 75 74 73 71 69 66 63 61 60 59 57 54 53 51 49 47 46 45 43 41 38 37 36 34 32 29 29 29 30 32 33 32 30 31 30 28 25 21 19 18 16 15 15 16 16 14 14
232 234 233 233 233 232 229 229 228 216 206 204 201 201 201 195 183 177 177 177 174 167 160 152 146 141 134 131 126 119 113 106 98 92 87 83 79 76 75 73 72 71 69 66 62 59 57 57 57 55 53 52 51 50 49 49 47 45 42 40 40 37 34 31 29 28 28 29 30 29 28 29 29 26 22 19 17 17 16 16 16 17 17 15 14
230 230 230 232 232 230 229 230 230 220 209 205 204 204 204 199 190 183 181 180 176 169 163 157 152 147 141 137 135 129 122 115 107 99 92 87 83 79 76 73 71 69 67 65 62 59 56 56 56 55 53 51 50 49 49 48 48 46 44 42 42 40 36 33 31 30 29 28 28 27 26 26 26 23 19 17 16 16 17 18 18 19 18 15 14
228 227 225 227 227 226 227 230 230 222 210 205 204 204 204 202 197 192 188 183 177 171 167 163 158 153 147 144 145 139 132 126 120 112 103 96 89 82 78 76 72 68 64 63 61 59 57 55 55 55 53 51 49 48 46 45 44 44 43 41 41 41 37 33 31 29 29 29 28 27 24 23 22 19 16 15 15 15 17 18 19 19 18 15 14
226 226 224 223 223 221 222 226 229 224 214 208 206 207 206 204 201 199 195 186 178 173 171 167 163 161 156 153 154 150 146 142 135 128 119 108 98 88 82 77 73 70 64 60 59 57 55 53 53 53 53 51 48 46 44 42 40 39 39 38 38 38 37 34 31 28 26 27 27 27 24 21 19 16 14 14 13 14 16 17 19 20 18 15 14
224 223 222 219 219 218 216 219 223 222 216 213 210 210 212 209 204 203 199 188 179 175 174 172 168 169 166 163 164 160 159 160 155 148 138 125 112 99 87 78 73 70 66 61 57 52 51 49 47 47 47 47 46 44 42 40 38 36 35 34 33 33 33 33 32 29 27 25 26 25 23 20 18 15 12 11 11 13 15 16 18 20 18 15 15
222 220 219 217 218 218 217 216 218 220 220 218 214 212 215 214 209 205 199 189 181 177 176 176 173 175 175 173 172 170 170 171 177 174 161 147 130 114 97 84 76 71 66 62 57 51 47 44 42 40 39 39 39 38 38 36 36 34 33 32 31 30 29 29 29 29 28 26 25 24 23 20 18 16 13 10 10 12 13 14 16 19 19 16 16
222 220 217 217 219 219 219 217 214 218 222 223 220 217 219 219 215 210 202 191 184 179 177 179 179 180 182 182 178 177 180 180 187 192 182 170 149 130 113 94 81 72 66 62 58 52 47 43 40 38 35 34 33 33 33 31 30 30 30 30 30 29 27 26 27 27 27 25 25 24 23 21 20 18 15 12 11 11 12 13 14 16 18 16 16
223 221 218 217 219 220 220 217 214 216 221 223 223 221 222 223 221 216 210 198 189 183 179 182 184 185 186 187 184 182 186 187 191 197 194 182 167 151 128 104 88 74 65 60 57 53 50 45 41 38 36 35 33 32 31 28 27 26 26 27 28 27 26 24 25 26 26 25 24 24 24 22 22 20 18 15 13 12 12 13 13 14 15 15 15
223 221 219 219 220 220 219 217 215 217 221 223 223 223 224 225 226 223 219 211 198 188 184 186 187 188 188 190 191 189 191 193 194 197 198 189 174 165 145 117 94 75 63 59 57 53 50 47 44 41 39 37 34 32 30 27 26 25 24 24 24 25 24 23 23 23 23 24 25 24 24 24 24 22 21 19 17 16 15 14 13 12 13 12 12
223 220 220 220 220 219 218 217 217 219 220 222 222 224 224 224 227 228 225 221 213 198 191 191 191 191 191 192 194 196 196 198 199 198 197 192 182 174 164 137 94 75 62 52 50 48 49 49 46 44 42 39 36 33 31 28 25 25 23 22 22 22 23 22 21 21 21 22 23 24 24 25 25 24 24 23 21 19 19 17 15 12 11 10 10
221 220 220 219 217 217 220 222 224 225 223 221 219 221 224 224 225 229 227 225 222 212 201 198 198 196 195 194 196 199 200 200 203 203 199 194 188 184 177 162 128 95 76 52 41 39 40 43 43 42 41 40 38 36 34 31 27 25 24 22 21 20 21 21 20 20 19 19 20 23 24 24 25 25 25 26 25 23 22 21 18 15 12 9 8
221 220 220 217 216 220 226 229 230 230 230 226 221 219 221 223 224 225 227 226 226 221 212 207 205 203 200 199 199 201 202 202 206 208 206 201 196 194 189 182 180 165 137 69 46 43 38 36 38 38 39 40 39 37 35 33 29 26 24 22 22 21 20 21 20 19 17 16 18 20 22 23 25 26 26 27 27 26 23 23 22 18 15 12 9
220 219 219 218 220 226 229 230 231 232 234 233 229 224 222 224 225 225 224 224 224 223 220 216 212 209 207 206 204 205 205 205 207 210 211 209 206 205 200 195 197 205 223 265 335 42 39 36 36 35 37 37 35 33 32 29 26 24 21 20 21 21 20 21 21 20 17 15 16 17 18 20 23 25 25 26 27 26 24 23 23 22 19 17 15
220 219 220 223 227 228 227 229 232 233 234 236 236 233 229 227 228 229 227 223 221 222 222 222 219 215 212 212 212 211 209 210 210 211 215 215 213 213 212 208 212 222 238 262 283 320 7 24 27 23 25 25 22 23 25 23 21 19 17 16 17 18 18 19 20 19 17 16 16 16 16 18 20 22 24 23 24 26 24 23 23 23 22 20 19
222 223 225 230 232 226 222 227 232 234 237 241 241 239 236 233 232 233 232 228 224 223 221 221 222 221 217 216 219 218 216 216 214 213 218 220 218 219 220 221 226 235 243 255 267 282 310 344 6 8 7 6 5 10 14 14 15 16 14 13 14 14 14 15 17 17 17 16 16 16 16 17 18 19 20 21 22 24 24 23 22 21 22 21 20
224 226 229 233 229 220 222 228 232 236 239 242 243 241 239 238 237 236 235 234 231 228 224 222 222 222 221 219 221 221 221 224 221 219 220 222 221 222 226 230 235 243 250 256 264 270 280 295 309 322 340 351 354 359 6 10 12 12 11 11 11 12 12 11 12 14 15 15 15 15 16 17 18 18 18 18 18 20 21 22 22 20 20 19 18
225 228 230 227 221 219 226 230 232 236 238 240 242 242 242 240 239 239 239 239 238 237 236 234 230 227 224 223 223 222 223 227 228 226 225 226 226 226 230 234 240 248 254 259 263 267 269 276 285 292 307 329 338 345 355 3 7 8 8 8 9 11 12 11 9 9 12 14 13 13 14 15 15 15 16 15 15 16 17 20 21 21 19 17 16
225 227 225 220 219 224 229 231 233 236 238 237 239 242 243 242 242 244 244 245 251 254 251 247 244 240 232 228 229 229 228 229 231 231 231 230 230 230 233 237 241 247 253 258 262 264 266 270 276 283 295 311 324 332 341 349 358 3 3 4 6 9 11 13 11 9 10 12 12 11 12 13 12 10 11 12 13 12 13 15 18 19 18 16 15
224 225 221 217 219 223 226 228 230 233 236 237 238 241 242 242 244 247 247 247 254 259 257 248 242 241 237 230 229 234 238 237 235 235 235 235 234 234 237 242 245 249 252 256 258 260 264 269 274 282 293 305 316 325 333 340 348 355 357 358 1 3 7 12 15 12 10 11 11 11 11 12 11 8 7 8 9 10 10 12 14 16 16 15 14
224 225 223 220 219 221 223 225 227 229 233 237 239 240 240 240 242 245 246 244 247 254 257 251 242 240 240 234 223 224 238 243 241 240 239 240 241 240 241 244 249 253 255 257 259 260 262 267 274 280 289 299 310 319 327 332 337 344 348 351 354 356 360 5 11 13 11 10 10 10 10 11 10 8 7 6 6 6 7 9 10 12 13 13 12
226 227 228 226 225 225 225 226 227 228 230 234 239 242 242 240 240 242 244 243 244 250 255 254 252 251 246 241 233 222 226 237 243 242 241 242 245 246 246 247 251 256 258 261 263 264 264 267 272 278 285 295 304 312 317 322 327 333 338 341 345 349 353 357 2 7 9 9 8 7 7 8 8 7 7 7 6 4 4 5 6 7 9 9 9
224 228 231 231 232 232 231 230 228 228 229 230 235 241 244 245 244 243 244 246 247 249 253 255 257 256 249 248 247 236 226 229 236 239 238 240 243 246 248 249 250 253 257 261 264 265 267 268 271 275 282 290 297 302 307 313 318 324 329 333 336 340 345 350 353 358 3 5 5 3 3 4 4 4 5 6 6 5 2 0 359 1 4 5 5
223 227 229 231 233 234 234 233 229 228 229 229 231 237 243 247 248 247 247 249 250 252 255 255 257 255 247 247 248 243 234 227 229 234 235 236 238 241 244 246 249 251 253 257 261 263 264 265 268 272 277 282 288 293 299 305 310 315 320 325 328 332 336 342 346 349 354 358 359 359 359 1 1 1 2 3 4 5 3 359 355 355 357 359 1
227 231 232 233 235 236 237 235 230 228 229 230 231 233 239 244 248 249 248 249 251 253 256 258 258 255 246 241 243 246 243 232 227 231 234 234 235 237 239 242 246 250 251 253 257 261 262 263 265 269 272 276 280 286 291 296 302 307 312 317 321 323 327 332 337 341 345 349 352 352 353 356 358 359 359 359 359 1 2 0 355 351 350 352 355
215 223 226 229 233 237 239 238 233 228 228 229 231 232 236 240 243 247 248 247 248 250 253 256 257 256 249 243 242 246 248 243 235 233 236 238 238 238 239 240 242 247 251 252 253 257 261 263 265 268 271 274 277 281 285 290 295 300 304 309 313 315 317 321 326 331 335 339 341 343 346 349 352 354 355 356 356 355 356 359 358 353 348 347 350
197 203 212 222 229 233 233 232 230 229 229 230 232 233 237 239 242 248 251 252 251 251 251 252 253 254 252 248 244 243 246 249 246 240 239 242 243 242 242 243 244 246 250 252 253 255 259 262 265 269 272 276 278 281 284 287 290 294 298 302 306 307 308 310 315 321 325 329 331 332 335 340 344 347 349 351 352 351 351 353 357 356 351 346 345
197 197 208 225 230 226 220 217 222 229 235 238 238 238 240 242 243 247 251 253 253 253 252 251 251 251 250 249 247 245 244 248 250 246 243 244 247 248 248 247 247 248 251 253 255 256 258 261 264 266 269 275 279 282 284 287 289 291 294 297 300 302 303 304 307 312 316 320 323 323 324 328 333 337 341 344 346 347 347 348 351 354 353 349 343
205 198 204 221 228 227 217 208 213 221 229 237 239 238 239 239 239 242 246 250 252 253 253 253 252 250 248 247 246 246 245 246 249 249 248 247 247 250 252 252 252 252 253 255 257 260 261 262 264 265 265 269 275 280 283 286 289 291 293 296 297 298 300 301 302 306 310 312 315 316 316 318 323 326 330 334 338 340 343 344 345 348 350 349 345
212 210 213 222 233 240 235 226 225 225 230 238 236 235 239 240 242 247 250 253 257 259 258 256 252 248 246 244 243 242 241 244 247 250 250 249 248 249 251 254 255 255 256 257 259 262 265 266 267 267 267 266 267 273 278 283 286 288 291 293 295 297 299 300 300 302 305 307 309 311 312 312 315 318 320 323 327 331 335 339 341 343 344 345 344
227 229 229 229 242 256 257 247 240 238 242 242 237 240 250 253 256 260 260 260 265 270 267 262 256 251 248 248 248 247 244 243 249 253 253 251 250 250 250 252 254 256 258 259 259 261 265 267 269 271 272 271 268 268 271 276 281 284 287 288 291 294 296 297 298 301 303 304 306 308 309 310 311 312 314 315 318 321 325 329 334 337 339 339 339
253 246 238 242 255 265 266 255 246 245 247 246 244 251 260 262 264 269 271 273 277 280 278 270 260 253 249 249 252 252 249 246 249 255 258 256 253 252 252 252 253 255 257 259 259 259 262 266 268 270 272 273 273 271 269 270 273 278 280 282 285 287 289 291 294 297 299 301 303 305 307 309 309 309 310 311 312 314 317 321 324 328 331 333 333
262 257 251 254 261 265 266 261 256 256 257 257 258 261 264 266 268 271 273 277 280 284 286 279 264 250 246 247 249 250 250 249 249 251 255 259 258 256 255 254 254 255 257 259 259 259 259 262 265 267 269 272 273 274 273 272 271 272 275 277 279 280 281 283 285 289 292 295 297 300 302 305 307 307 307 308 308 310 312 315 317 319 322 324 326
262 265 264 264 264 263 264 265 264 265 266 267 268 268 267 266 268 270 272 273 276 278 281 281 269 253 246 247 250 252 252 252 252 251 251 255 259 260 259 257 256 257 258 260 261 260 259 259 261 264 267 271 274 277 280 281 277 274 275 275 276 277 277 277 279 283 285 287 289 293 296 299 302 304 305 305 305 306 308 310 312 314 315 316 318
260 263 265 267 266 262 258 257 258 263 267 267 267 269 269 268 269 273 273 271 272 273 272 274 273 264 256 252 252 256 256 253 252 252 251 254 258 262 262 261 260 260 260 262 263 264 262 261 262 266 268 271 274 277 280 283 280 277 278 277 277 277 276 277 278 279 280 282 285 287 290 294 297 300 303 304 304 304 305 306 308 309 310 311 312
259 260 262 265 266 264 262 258 257 263 268 268 267 269 272 273 275 277 278 277 277 276 274 272 272 272 269 261 255 254 254 252 250 251 253 254 256 258 261 263 264 263 263 264 266 268 268 267 266 267 267 267 269 271 275 277 276 277 279 280 281 280 278 278 278 276 276 279 283 285 287 290 292 294 297 299 301 303 303 304 305 306 307 308 307
259 261 264 266 268 269 268 267 267 270 274 274 274 274 276 277 278 279 281 282 281 280 279 276 274 274 274 273 266 258 254 252 251 255 261 260 257 256 257 260 262 263 264 264 266 268 269 270 269 267 265 266 267 269 271 273 273 275 278 280 283 283 280 281 282 278 273 276 283 287 288 289 289 291 292 292 295 298 299 300 302 304 306 307 306
259 262 264 266 268 269 268 269 270 271 273 274 274 275 276 277 277 278 279 279 279 280 279 276 275 275 275 277 275 268 262 258 258 262 266 265 262 261 261 260 259 260 262 264 266 267 268 270 270 269 267 268 270 270 270 272 274 276 279 278 278 280 281 283 283 278 274 276 281 284 286 287 288 290 290 291 294 296 296 297 299 300 302 303 303
260 261 262 264 265 266 267 268 269 270 271 271 272 273 275 276 277 278 278 277 277 279 278 275 276 278 277 275 274 272 269 268 267 265 265 266 266 266 268 268 264 261 263 264 265 267 268 269 271 271 269 270 272 271 271 272 273 277 279 277 276 279 281 282 281 277 277 282 283 281 282 284 287 289 290 292 296 296 294 295 297 297 297 297 297
259 260 261 262 264 265 266 267 268 269 269 270 270 271 273 275 276 277 278 277 276 276 276 275 277 279 277 274 273 272 271 271 271 268 265 267 268 268 270 271 268 265 265 265 265 267 269 272 273 273 271 270 271 272 272 273 274 278 279 277 277 278 277 278 278 277 279 285 286 283 281 282 285 288 288 292 296 295 293 294 295 295 294 292 292
257 258 259 261 262 264 265 266 268 268 269 269 269 270 271 272 273 274 275 275 275 274 272 273 275 277 275 274 273 272 271 270 269 269 269 271 271 271 270 268 267 267 268 267 267 269 272 275 275 275 273 272 272 273 274 275 277 279 280 278 278 278 276 277 278 278 280 284 285 285 282 280 282 284 286 290 294 293 291 290 290 290 290 290 290
256 257 258 259 260 261 263 264 266 267 268 269 269 268 269 270 271 272 272 273 273 272 271 271 271 272 273 273 272 272 271 269 268 271 274 275 274 273 270 268 268 270 269 268 268 269 272 275 276 275 275 275 274 274 275 276 277 279 280 279 279 280 280 281 281 281 283 285 286 286 285 282 280 280 282 286 290 291 289 287 285 285 287 287 288
256 256 257 258 258 259 260 261 262 263 265 266 267 268 268 268 269 270 271 271 271 270 270 269 269 268 269 270 271 270 271 270 269 271 272 273 274 273 270 269 270 270 269 267 269 271 272 273 275 275 277 277 276 275 276 277 278 279 279 279 280 281 282 283 283 284 284 284 285 286 287 286 283 280 279 281 284 285 285 287 286 286 287 286 285
256 256 257 258 258 259 259 259 260 260 262 263 265 266 267 268 269 269 269 269 268 268 268 267 267 266 265 266 267 267 267 268 268 269 268 267 268 270 270 270 270 270 269 267 268 270 271 272 273 275 276 276 274 273 273 274 276 278 278 279 280 280 280 282 284 284 283 283 285 287 288 286 284 282 280 280 282 282 282 284 284 285 287 286 283
255 256 256 257 258 259 259 260 260 260 260 261 263 264 265 266 267 268 268 268 267 266 266 266 266 265 264 264 264 264 264 265 265 266 267 266 265 265 267 269 269 270 270 269 268 268 269 271 271 273 274 274 274 273 271 271 274 276 277 278 279 279 280 280 281 282 282 283 284 286 286 284 282 281 280 281 283 283 281 281 280 281 283 282 280
254 255 255 256 256 257 258 259 260 260 260 261 261 262 262 263 264 265 266 267 267 265 264 265 266 266 265 265 264 263 262 262 263 264 266 267 266 265 265 266 268 269 270 270 270 270 270 270 270 271 272 273 274 276 274 274 274 275 276 276 276 277 278 278 278 280 282 283 283 282 282 283 282 281 282 282 283 282 279 276 276 277 279 280 280
252 253 253 254 254 255 256 257 258 259 260 260 260 260 260 261 262 263 264 265 266 265 264 264 265 265 266 266 265 264 264 263 263 264 264 264 264 264 263 264 265 267 268 269 270 271 271 271 271 271 271 272 273 275 276 276 276 277 277 276 276 277 276 275 276 279 282 283 283 281 280 281 282 282 284 284 283 282 279 277 278 278 278 279 280
254 254 254 254 254 254 255 255 256 257 258 259 259 259 259 259 259 260 262 263 264 264 264 263 263 264 265 266 265 265 265 265 264 264 264 264 263 263 262 262 262 263 265 267 269 270 271 271 271 271 270 270 271 272 274 276 277 278 278 277 278 279 277 274 274 276 279 280 281 283 282 282 283 283 284 285 283 283 283 283 285 284 282 281 279
257 258 258 258 257 257 257 257 257 258 258 259 259 260 260 259 258 258 259 260 261 262 263 263 263 263 263 264 264 265 265 265 265 264 264 264 264 264 263 262 262 262 263 265 266 267 269 270 270 270 270 270 270 270 271 271 273 275 276 277 279 280 278 277 276 275 274 274 278 282 282 281 282 283 284 284 283 283 285 287 289 289 288 287 284
258 259 260 261 261 262 262 263 263 263 263 263 262 262 262 262 261 260 260 260 260 261 262 262 262 262 263 263 264 264 265 265 265 265 264 264 264 265 264 264 263 262 262 263 264 265 266 267 268 269 270 270 270 270 269 269 269 270 271 274 276 277 278 278 278 277 274 272 276 280 280 280 281 282 282 282 282 284 285 286 288 290 290 290 290
Height
5855 5855 5855 5856 5856 5857 5857 5857 5858 5859 5859 5860 5861 5862 5863 5863 5863 5863 5863 5863 5863 5864 5865 5866 5867 5867 5867 5867 5868 5868 5867 5867 5867 5867 5866 5866 5865 5864 5863 5862 5861 5860 5859 5859 5858 5857 5856 5856 5855 5854 5853 5852 5851 5850 5849 5848 5847 5846 5845 5844 5843 5842 5841 5840 5839 5838 5838 5837 5836 5835 5834 5834 5833 5833 5832 5831 5831 5830 5829 5828 5827 5827 5826 5825 5824
5853 5854 5854 5855 5856 5856 5856 5856 5857 5858 5859 5860 5861 5862 5863 5863 5863 5863 5863 5863 5863 5864 5865 5866 5867 5867 5867 5868 5868 5868 5868 5868 5867 5867 5867 5866 5866 5865 5864 5863 5862 5861 5861 5860 5860 5859 5858 5857 5856 5855 5854 5853 5852 5851 5850 5849 5848 5847 5846 5845 5844 5843 5842 5841 5840 5839 5838 5838 5837 5836 5835 5834 5834 5833 5832 5832 5831 5830 5829 5828 5828 5827 5826 5825 5824
5852 5853 5853 5854 5855 5856 5855 5855 5857 5858 5858 5859 5860 5861 5862 5862 5862 5862 5863 5863 5863 5864 5865 5866 5867 5867 5868 5868 5868 5868 5868 5868 5868 5867 5867 5866 5866 5866 5865 5864 5864 5863 5862 5862 5861 5861 5860 5859 5858 5857 5856 5855 5854 5852 5851 5850 5849 5848 5847 5846 5845 5844 5843 5842 5842 5841 5840 5839 5838 5837 5836 5835 5835 5834 5833 5832 5831 5830 5830 5829 5828 5827 5826 5826 5825
5851 5851 5852 5853 5854 5854 5855 5855 5856 5857 5858 5858 5859 5860 5861 5862 5862 5862 5862 5863 5863 5863 5864 5865 5866 5867 5867 5868 5868 5868 5868 5868 5868 5868 5867 5867 5867 5866 5866 5865 5865 5864 5864 5863 5863 5862 5862 5861 5860 5859 5858 5857 5855 5854 5853 5852 5851 5850 5848 5847 5846 5845 5844 5844 5843 5842 5841 5840 5839 5838 5837 5837 5836 5835 5834 5833 5832 5831 5830 5829 5828 5827 5827 5826 5825
5850 5850 5852 5853 5853 5854 5854 5855 5856 5856 5857 5858 5859 5860 5861 5861 5862 5862 5862 5862 5863 5863 5864 5865 5866 5866 5867 5867 5868 5868 5868 5868 5868 5868 5867 5867 5867 5866 5866 5866 5866 5865 5865 5864 5864 5864 5863 5863 5862 5860 5859 5858 5857 5856 5855 5854 5853 5851 5850 5849 5848 5847 5846 5845 5844 5843 5842 5841 5841 5840 5839 5838 5837 5836 5835 5834 5833 5832 5831 5830 5829 5828 5827 5826 5825
5848 5850 5851 5852 5853 5854 5854 5855 5855 5856 5857 5857 5858 5860 5861 5861 5862 5862 5862 5862 5862 5863 5863 5864 5865 5865 5866 5867 5868 5868 5868 5869 5869 5868 5868 5867 5867 5867 5866 5866 5866 5866 5866 5865 5865 5865 5865 5864 5863 5862 5861 5860 5859 5858 5857 5856 5855 5853 5852 5851 5850 5849 5847 5846 5845 5844 5843 5842 5841 5840 5839 5838 5837 5837 5836 5835 5834 5832 5831 5830 5829 5828 5827 5826 5826
5847 5849 5850 5851 5852 5853 5854 5855 5856 5856 5856 5857 5858 5859 5860 5861 5862 5862 5862 5862 5862 5862 5863 5864 5864 5865 5865 5866 5867 5868 5868 5868 5869 5868 5868 5867 5867 5867 5867 5867 5866 5866 5866 5866 5866 5866 5866 5866 5865 5864 5863 5862 5861 5860 5859 5858 5857 5855 5854 5853 5852 5850 5849 5848 5846 5845 5844 5843 5842 5841 5840 5839 5838 5837 5836 5835 5834 5833 5832 5831 5830 5829 5828 5827 5826
5846 5847 5849 5850 5851 5853 5854 5855 5856 5856 5856 5857 5857 5858 5860 5861 5862 5862 5862 5862 5861 5861 5862 5863 5863 5864 5864 5865 5866 5867 5867 5868 5868 5868 5868 5868 5868 5867 5867 5867 5867 5867 5867 5866 5866 5867 5866 5866 5866 5865 5864 5863 5862 5861 5860 5859 5858 5857 5856 5855 5853 5852 5851 5849 5848 5846 5845 5844 5843 5842 5841 5840 5839 5838 5837 5836 5835 5834 5833 5832 5830 5829 5828 5828 5827
5845 5846 5847 5849 5850 5852 5854 5855 5855 5856 5856 5856 5857 5858 5859 5861 5862 5862 5862 5861 5861 5861 5861 5862 5863 5863 5864 5864 5865 5866 5866 5867 5867 5868 5868 5868 5868 5868 5868 5868 5867 5867 5867 5867 5867 5867 5867 5867 5866 5866 5865 5864 5863 5862 5861 5860 5859 5858 5857 5856 5855 5854 5852 5851 5849 5848 5846 5845 5844 5843 5841 5840 5839 5838 5837 5837 5836 5834 5833 5832 5831 5830 5829 5828 5827
5843 5845 5846 5847 5849 5851 5852 5854 5855 5855 5856 5856 5857 5857 5859 5860 5861 5862 5862 5861 5861 5860 5860 5861 5861 5862 5863 5864 5864 5865 5865 5866 5867 5867 5867 5867 5868 5868 5868 5868 5868 5868 5868 5867 5867 5867 5867 5867 5867 5866 5866 5865 5864 5863 5862 5861 5860 5859 5858 5857 5856 5855 5853 5852 5851 5849 5848 5846 5845 5843 5842 5841 5840 5839 5838 5837 5836 5835 5834 5833 5832 5831 5829 5828 5827
5842 5843 5845 5846 5848 5850 5851 5853 5854 5855 5855 5856 5856 5857 5858 5860 5861 5861 5861 5861 5861 5860 5860 5860 5860 5861 5862 5863 5864 5864 5865 5865 5866 5866 5867 5867 5867 5868 5868 5868 5868 5868 5868 5868 5867 5867 5867 5866 5866 5866 5866 5865 5864 5863 5862 5862 5861 5859 5858 5857 5857 5856 5854 5853 5851 5850 5849 5847 5846 5844 5843 5842 5840 5840 5839 5838 5837 5836 5835 5833 5832 5831 5830 5829 5828
5840 5842 5843 5845 5847 5848 5850 5851 5853 5854 5855 5855 5856 5857 5858 5859 5860 5860 5861 5861 5861 5860 5860 5859 5859 5860 5861 5862 5863 5863 5864 5864 5865 5865 5866 5866 5867 5867 5868 5868 5868 5868 5868 5868 5868 5867 5867 5866 5866 5866 5866 5865 5864 5863 5862 5862 5861 5860 5859 5858 5857 5856 5855 5854 5852 5851 5849 5848 5847 5845 5844 5843 5841 5840 5840 5839 5838 5837 5835 5834 5833 5831 5830 5829 5828
5838 5840 5842 5843 5845 5846 5848 5850 5851 5853 5854 5855 5855 5856 5857 5858 5859 5859 5860 5860 5860 5860 5860 5860 5859 5859 5859 5860 5861 5862 5863 5863 5864 5865 5865 5866 5866 5867 5867 5868 5868 5868 5868 5868 5867 5867 5866 5866 5866 5866 5866 5865 5864 5863 5862 5862 5861 5860 5859 5858 5857 5856 5855 5854 5853 5852 5850 5849 5847 5846 5845 5843 5842 5841 5840 5840 5839 5838 5836 5835 5833 5832 5831 5830 5828
5837 5838 5840 5842 5843 5845 5847 5849 5850 5851 5853 5854 5855 5856 5856 5857 5858 5858 5859 5859 5859 5859 5860 5859 5859 5859 5859 5859 5860 5861 5862 5862 5863 5864 5865 5865 5866 5866 5866 5867 5868 5868 5868 5868 5867 5867 5867 5866 5866 5866 5866 5865 5864 5863 5862 5862 5861 5860 5859 5858 5857 5856 5855 5854 5853 5852 5851 5849 5848 5847 5846 5844 5843 5842 5841 5840 5839 5838 5837 5835 5834 5833 5831 5830 5829
5835 5837 5839 5841 5842 5844 5845 5847 5848 5850 5851 5853 5854 5855 5855 5856 5857 5857 5858 5858 5858 5858 5858 5859 5859 5859 5859 5859 5859 5859 5860 5861 5862 5863 5864 5865 5865 5866 5866 5866 5867 5867 5867 5867 5867 5867 5867 5867 5867 5867 5866 5865 5864 5863 5863 5862 5861 5860 5860 5858 5857 5856 5855 5854 5853 5852 5851 5850 5849 5847 5846 5845 5844 5843 5842 5841 5840 5839 5837 5836 5834 5833 5832 5830 5829
5834 5836 5838 5840 5841 5843 5844 5846 5847 5849 5850 5851 5852 5853 5854 5855 5856 5856 5857 5857 5857 5857 5857 5858 5858 5858 5858 5858 5858 5858 5859 5860 5861 5862 5863 5864 5865 5865 5865 5866 5866 5867 5867 5867 5867 5867 5867 5867 5867 5866 5866 5865 5864 5864 5863 5862 5861 5861 5860 5858 5857 5856 5855 5854 5853 5852 5851 5850 5849 5848 5847 5846 5845 5844 5843 5842 5840 5839 5838 5836 5835 5834 5832 5831 5829
5833 5835 5837 5839 5840 5842 5843 5845 5846 5848 5849 5850 5851 5852 5853 5854 5855 5855 5855 5855 5855 5856 5856 5857 5857 5857 5858 5858 5858 5858 5859 5859 5860 5861 5862 5863 5864 5864 5865 5865 5866 5866 5866 5867 5867 5867 5867 5867 5867 5866 5865 5865 5864 5864 5863 5862 5862 5861 5860 5859 5858 5857 5855 5854 5853 5851 5850 5849 5848 5848 5847 5846 5845 5844 5843 5842 5841 5839 5838 5837 5835 5834 5833 5831 5830
5832 5834 5836 5838 5839 5841 5842 5844 5846 5847 5848 5849 5850 5851 5851 5852 5853 5854 5854 5854 5854 5855 5855 5856 5856 5857 5857 5857 5857 5858 5859 5859 5860 5860 5861 5862 5863 5864 5864 5865 5865 5866 5866 5866 5867 5867 5867 5867 5867 5866 5865 5864 5864 5864 5863 5862 5862 5861 5860 5859 5858 5857 5856 5855 5853 5852 5850 5849 5848 5847 5847 5846 5845 5844 5844 5843 5841 5840 5838 5837 5836 5835 5833 5832 5831
5831 5833 5836 5837 5839 5840 5842 5843 5845 5846 5847 5848 5848 5849 5850 5851 5852 5852 5853 5853 5854 5854 5855 5856 5857 5858 5858 5858 5857 5858 5858 5858 5859 5860 5861 5862 5862 5863 5864 5864 5864 5865 5865 5866 5867 5867 5867 5867 5866 5866 5865 5864 5864 5864 5863 5862 5862 5861 5860 5859 5858 5857 5856 5855 5854 5852 5851 5849 5848 5847 5846 5846 5845 5844 5843 5842 5841 5840 5838 5837 5836 5835 5834 5833 5831
5830 5832 5835 5837 5839 5840 5841 5842 5843 5844 5845 5846 5847 5848 5849 5849 5850 5851 5852 5853 5854 5855 5856 5856 5857 5858 5859 5859 5858 5859 5859 5859 5859 5860 5860 5861 5862 5863 5863 5863 5864 5864 5865 5865 5866 5867 5867 5867 5866 5866 5865 5865 5864 5864 5863 5862 5862 5861 5861 5860 5858 5857 5856 5855 5854 5852 5851 5850 5849 5847 5846 5845 5844 5844 5843 5842 5841 5840 5838 5837 5836 5835 5834 5833 5832
5827 5830 5832 5835 5836 5837 5838 5840 5841 5843 5844 5845 5846 5847 5847 5848 5849 5850 5851 5852 5853 5854 5854 5855 5855 5856 5857 5857 5858 5859 5860 5860 5860 5860 5860 5861 5861 5862 5862 5863 5863 5863 5864 5864 5865 5866 5866 5866 5866 5866 5865 5865 5864 5864 5863 5862 5862 5861 5860 5859 5859 5858 5856 5855 5854 5853 5851 5850 5849 5848 5846 5845 5844 5843 5843 5842 5841 5840 5838 5837 5836 5835 5834 5833 5832
5825 5828 5830 5832 5833 5834 5836 5837 5839 5840 5842 5843 5844 5845 5846 5846 5847 5848 5850 5851 5851 5852 5852 5853 5853 5854 5855 5856 5855 5856 5858 5860 5860 5861 5861 5860 5861 5861 5862 5862 5862 5863 5863 5864 5864 5865 5865 5865 5865 5865 5865 5865 5864 5864 5863 5862 5862 5861 5860 5859 5858 5857 5856 5855 5854 5853 5851 5850 5849 5847 5846 5845 5844 5843 5842 5841 5840 5839 5838 5837 5836 5835 5834 5833 5831
5823 5826 5827 5829 5831 5833 5834 5836 5837 5838 5840 5841 5842 5843 5844 5845 5846 5847 5848 5849 5850 5850 5851 5852 5852 5853 5854 5855 5855 5854 5855 5857 5859 5860 5860 5860 5860 5860 5861 5861 5862 5862 5862 5863 5863 5863 5864 5864 5864 5864 5863 5864 5863 5863 5862 5862 5861 5860 5859 5858 5857 5856 5855 5855 5854 5853 5851 5850 5849 5847 5846 5845 5844 5843 5842 5841 5840 5839 5838 5836 5836 5835 5834 5833 5831
5820 5822 5824 5827 5829 5830 5832 5834 5835 5836 5837 5838 5839 5841 5842 5843 5844 5845 5846 5847 5847 5848 5849 5850 5851 5852 5853 5855 5855 5854 5854 5854 5856 5858 5859 5859 5858 5859 5859 5860 5860 5860 5861 5861 5862 5862 5862 5862 5862 5862 5862 5862 5862 5861 5861 5860 5859 5858 5858 5857 5856 5855 5854 5854 5853 5853 5851 5850 5849 5847 5846 5845 5844 5843 5842 5841 5839 5838 5837 5836 5835 5835 5834 5833 5831
5816 5818 5821 5823 5825 5827 5829 5830 5832 5833 5833 5835 5836 5838 5839 5840 5842 5843 5844 5845 5845 5846 5847 5848 5849 5850 5851 5853 5854 5853 5853 5853 5854 5855 5856 5856 5856 5856 5857 5857 5857 5858 5859 5859 5859 5860 5860 5860 5860 5860 5859 5860 5860 5859 5859 5858 5858 5857 5856 5855 5854 5854 5853 5852 5852 5851 5851 5850 5849 5847 5846 5844 5843 5842 5841 5840 5839 5838 5837 5836 5835 5834 5833 5832 5831
5814 5816 5818 5820 5822 5823 5824 5826 5827 5829 5830 5832 5833 5834 5836 5838 5839 5841 5842 5842 5843 5844 5845 5846 5847 5848 5849 5850 5851 5852 5852 5852 5852 5853 5853 5853 5854 5854 5854 5855 5855 5855 5856 5857 5857 5857 5857 5857 5857 5857 5857 5857 5857 5857 5856 5856 5856 5855 5854 5853 5853 5852 5851 5851 5850 5850 5849 5849 5848 5847 5845 5844 5843 5842 5841 5840 5838 5837 5836 5835 5834 5833 5833 5832 5831
5812 5814 5816 5818 5819 5819 5820 5822 5824 5825 5826 5828 5829 5830 5832 5834 5836 5838 5839 5840 5841 5842 5842 5843 5844 5845 5846 5847 5848 5849 5850 5850 5850 5850 5851 5851 5851 5852 5852 5852 5852 5852 5853 5854 5854 5854 5854 5854 5855 5854 5854 5854 5854 5854 5854 5854 5853 5853 5852 5852 5851 5850 5849 5848 5848 5848 5847 5847 5847 5846 5845 5843 5842 5841 5840 5839 5838 5837 5836 5835 5834 5833 5832 5831 5830
5808 5811 5814 5816 5816 5816 5816 5818 5821 5824 5825 5826 5827 5828 5829 5831 5833 5835 5837 5838 5839 5839 5840 5841 5841 5842 5843 5844 5845 5846 5847 5848 5849 5848 5848 5849 5849 5850 5850 5850 5850 5850 5850 5850 5851 5851 5852 5852 5852 5853 5852 5852 5852 5852 5852 5851 5851 5851 5850 5849 5849 5848 5847 5846 5846 5845 5845 5845 5845 5845 5844 5843 5842 5840 5839 5838 5837 5836 5835 5834 5833 5832 5831 5830 5829
5807 5809 5811 5814 5815 5814 5813 5814 5817 5821 5823 5825 5826 5827 5828 5829 5830 5831 5832 5833 5834 5835 5836 5837 5838 5838 5839 5841 5842 5843 5843 5844 5845 5846 5846 5847 5847 5847 5848 5848 5848 5848 5848 5848 5848 5848 5848 5849 5849 5850 5850 5850 5850 5849 5849 5849 5848 5848 5848 5847 5846 5846 5845 5844 5843 5843 5842 5842 5842 5842 5842 5841 5840 5839 5838 5837 5836 5835 5834 5833 5832 5831 5830 5829 5828
5806 5807 5809 5812 5814 5814 5813 5813 5815 5817 5819 5821 5822 5824 5826 5827 5828 5828 5828 5828 5830 5831 5832 5833 5834 5834 5835 5836 5837 5838 5839 5840 5841 5842 5843 5843 5844 5844 5845 5846 5846 5846 5846 5845 5846 5845 5845 5845 5845 5845 5846 5847 5848 5847 5847 5847 5846 5846 5846 5846 5845 5844 5844 5842 5841 5841 5840 5839 5839 5840 5840 5839 5839 5838 5837 5837 5836 5834 5833 5832 5831 5830 5829 5828 5827
5805 5806 5807 5810 5812 5813 5813 5813 5814 5816 5817 5818 5820 5822 5824 5825 5826 5825 5824 5825 5826 5828 5828 5828 5829 5829 5830 5830 5831 5832 5832 5834 5835 5837 5839 5839 5840 5841 5841 5842 5843 5843 5843 5843 5844 5843 5842 5842 5842 5841 5841 5843 5844 5844 5844 5844 5843 5843 5843 5843 5843 5842 5842 5841 5840 5839 5838 5837 5836 5837 5837 5837 5837 5836 5835 5835 5834 5833 5832 5831 5830 5829 5828 5827 5826
5803 5805 5805 5807 5810 5811 5811 5811 5813 5815 5816 5817 5818 5819 5821 5823 5823 5822 5821 5821 5822 5823 5823 5824 5825 5826 5828 5828 5829 5829 5829 5829 5830 5832 5834 5835 5836 5836 5837 5837 5838 5839 5839 5839 5840 5840 5839 5838 5838 5837 5837 5837 5839 5840 5841 5841 5840 5840 5840 5840 5840 5840 5839 5838 5838 5837 5836 5835 5834 5834 5834 5834 5834 5834 5833 5832 5832 5832 5831 5830 5829 5828 5827 5826 5825
5799 5802 5804 5805 5807 5808 5808 5809 5810 5812 5814 5815 5816 5817 5818 5818 5819 5819 5818 5818 5818 5818 5819 5819 5820 5823 5825 5826 5828 5828 5827 5827 5829 5830 5830 5831 5832 5833 5833 5834 5834 5835 5835 5835 5836 5837 5836 5835 5835 5834 5833 5833 5833 5835 5836 5837 5837 5836 5836 5836 5837 5837 5837 5836 5835 5834 5833 5832 5831 5831 5831 5831 5831 5831 5831 5830 5830 5830 5829 5829 5828 5827 5826 5825 5824
5795 5798 5801 5803 5804 5805 5806 5806 5808 5809 5811 5812 5813 5813 5814 5814 5815 5815 5815 5815 5815 5815 5815 5815 5815 5817 5820 5821 5823 5823 5823 5823 5826 5827 5827 5827 5828 5829 5829 5830 5831 5831 5831 5831 5832 5833 5833 5833 5832 5830 5830 5829 5829 5830 5831 5832 5834 5833 5832 5832 5833 5834 5835 5835 5834 5833 5831 5830 5829 5829 5828 5828 5829 5829 5829 5828 5827 5827 5827 5827 5826 5825 5824 5823 5823
5793 5794 5796 5798 5801 5802 5803 5804 5805 5806 5807 5808 5809 5810 5810 5811 5811 5812 5812 5811 5812 5812 5812 5812 5812 5814 5816 5817 5818 5819 5819 5820 5821 5822 5823 5824 5824 5825 5825 5826 5827 5827 5827 5827 5827 5828 5829 5829 5827 5827 5827 5827 5827 5828 5828 5829 5830 5830 5830 5829 5828 5829 5830 5832 5831 5830 5829 5828 5827 5827 5826 5826 5826 5826 5826 5826 5826 5825 5824 5824 5824 5823 5822 5822 5821
5790 5790 5792 5794 5796 5798 5800 5802 5803 5804 5805 5806 5806 5806 5807 5808 5808 5809 5809 5809 5809 5809 5809 5809 5810 5811 5812 5814 5815 5815 5816 5818 5818 5817 5818 5819 5820 5821 5821 5822 5822 5823 5823 5822 5823 5823 5824 5824 5825 5826 5827 5827 5825 5825 5825 5825 5824 5825 5826 5826 5825 5824 5825 5827 5828 5828 5826 5825 5825 5824 5824 5823 5823 5823 5822 5823 5823 5823 5822 5821 5821 5820 5820 5819 5818
5787 5787 5788 5789 5791 5793 5795 5798 5800 5800 5801 5801 5802 5803 5804 5804 5805 5805 5806 5807 5808 5808 5808 5807 5807 5808 5808 5810 5811 5811 5812 5814 5813 5813 5814 5814 5815 5817 5818 5818 5818 5818 5817 5817 5818 5818 5819 5820 5823 5825 5824 5822 5820 5819 5820 5821 5820 5820 5821 5821 5822 5821 5820 5821 5823 5824 5823 5821 5820 5820 5820 5820 5820 5820 5820 5819 5819 5820 5819 5819 5818 5817 5817 5816 5815
5784 5785 5785 5786 5787 5788 5790 5793 5795 5796 5797 5797 5797 5799 5799 5800 5800 5801 5803 5805 5806 5806 5806 5805 5805 5805 5805 5806 5808 5808 5809 5809 5809 5810 5811 5810 5810 5812 5813 5813 5813 5813 5813 5813 5813 5813 5813 5816 5818 5819 5819 5818 5817 5817 5816 5816 5816 5816 5816 5817 5818 5818 5817 5817 5817 5817 5818 5818 5817 5816 5816 5817 5817 5817 5817 5817 5817 5817 5816 5815 5815 5814 5813 5813 5812
5781 5782 5783 5783 5784 5785 5786 5788 5790 5792 5793 5793 5794 5795 5795 5795 5796 5797 5800 5802 5802 5803 5803 5803 5802 5802 5803 5804 5804 5805 5806 5806 5806 5808 5808 5807 5806 5807 5806 5806 5807 5808 5808 5809 5808 5807 5808 5811 5812 5812 5813 5813 5813 5814 5813 5811 5811 5813 5813 5812 5812 5812 5812 5812 5812 5811 5812 5814 5815 5813 5812 5812 5812 5812 5812 5813 5814 5814 5813 5812 5812 5811 5810 5809 5808
5777 5778 5779 5780 5780 5781 5783 5784 5786 5787 5788 5789 5790 5790 5791 5791 5791 5793 5795 5797 5799 5800 5800 5800 5800 5800 5800 5801 5801 5801 5801 5801 5802 5803 5804 5804 5803 5803 5804 5804 5803 5803 5804 5804 5803 5803 5803 5805 5806 5806 5807 5807 5807 5809 5809 5807 5807 5809 5808 5806 5807 5809 5807 5804 5806 5807 5807 5807 5808 5808 5807 5806 5806 5807 5807 5808 5809 5809 5809 5809 5809 5808 5806 5805 5804
5772 5773 5774 5775 5776 5777 5778 5780 5781 5782 5783 5784 5785 5785 5786 5787 5787 5788 5790 5792 5794 5796 5796 5797 5797 5797 5797 5797 5797 5797 5797 5797 5796 5797 5799 5798 5797 5799 5801 5802 5800 5799 5799 5798 5798 5797 5798 5799 5800 5800 5800 5800 5801 5802 5804 5804 5803 5803 5801 5800 5802 5804 5801 5798 5800 5803 5802 5801 5800 5801 5802 5802 5801 5801 5802 5803 5803 5803 5804 5805 5804 5803 5802 5801 5800
5767 5768 5770 5771 5772 5773 5774 5775 5776 5777 5778 5780 5781 5781 5782 5782 5783 5784 5785 5787 5789 5790 5792 5792 5792 5792 5792 5793 5793 5793 5793 5793 5792 5792 5793 5793 5791 5793 5795 5795 5794 5794 5793 5793 5793 5792 5792 5793 5793 5794 5793 5794 5795 5797 5798 5798 5798 5796 5795 5794 5795 5796 5794 5793 5796 5799 5798 5795 5793 5793 5796 5798 5796 5795 5796 5797 5797 5797 5798 5799 5799 5797 5796 5796 5795
5761 5763 5764 5766 5767 5768 5769 5770 5771 5772 5773 5775 5776 5776 5777 5778 5778 5779 5780 5782 5783 5784 5786 5787 5787 5787 5787 5788 5788 5788 5788 5788 5787 5787 5788 5787 5786 5787 5787 5787 5788 5788 5788 5788 5788 5787 5787 5787 5787 5787 5787 5788 5790 5791 5790 5791 5792 5791 5789 5789 5789 5788 5787 5786 5789 5792 5793 5789 5786 5785 5788 5791 5791 5789 5790 5791 5791 5791 5791 5792 5792 5791 5791 5791 5790
5757 5758 5760 5761 5762 5763 5764 5765 5766 5767 5768 5769 5771 5771 5772 5773 5773 5774 5775 5776 5777 5778 5780 5781 5782 5782 5782 5782 5783 5783 5782 5782 5782 5782 5783 5783 5782 5781 5781 5781 5781 5782 5782 5782 5782 5782 5782 5782 5782 5782 5782 5783 5784 5785 5785 5785 5785 5785 5784 5783 5782 5781 5781 5781 5781 5784 5786 5783 5780 5779 5780 5783 5784 5783 5784 5785 5785 5785 5785 5785 5785 5785 5786 5786 5785
5752 5754 5755 5756 5757 5758 5759 5760 5761 5761 5762 5764 5765 5767 5767 5768 5769 5769 5770 5771 5772 5773 5773 5774 5776 5776 5777 5777 5777 5778 5777 5777 5777 5777 5778 5779 5779 5778 5777 5776 5776 5776 5777 5777 5778 5777 5777 5777 5777 5777 5778 5777 5778 5780 5781 5780 5779 5779 5778 5778 5776 5775 5776 5776 5775 5776 5778 5777 5775 5773 5774 5776 5777 5776 5777 5779 5779 5779 5780 5780 5780 5780 5780 5780 5779
5747 5748 5750 5751 5752 5752 5753 5754 5755 5756 5757 5758 5760 5761 5763 5763 5763 5763 5764 5765 5766 5767 5767 5768 5769 5770 5770 5771 5772 5772 5772 5772 5771 5771 5772 5773 5774 5774 5774 5772 5772 5771 5771 5771 5771 5771 5772 5771 5771 5771 5771 5770 5770 5773 5775 5774 5773 5773 5772 5771 5770 5770 5770 5772 5771 5770 5771 5770 5769 5768 5767 5768 5769 5768 5769 5772 5774 5774 5774 5775 5775 5774 5774 5774 5773
5742 5743 5744 5745 5746 5747 5748 5749 5749 5750 5751 5753 5754 5756 5757 5758 5758 5758 5758 5758 5759 5760 5761 5761 5762 5763 5763 5764 5765 5765 5766 5765 5765 5765 5766 5767 5767 5768 5768 5767 5767 5766 5765 5765 5764 5764 5764 5764 5764 5765 5765 5764 5764 5764 5766 5767 5766 5765 5764 5764 5763 5763 5764 5765 5764 5763 5765 5765 5763 5762 5760 5760 5760 5759 5761 5764 5765 5765 5767 5768 5769 5769 5768 5767 5767
5737 5737 5738 5739 5740 5741 5742 5743 5743 5744 5745 5746 5748 5749 5751 5752 5752 5752 5752 5752 5752 5753 5754 5755 5756 5756 5757 5757 5757 5758 5758 5758 5759 5760 5760 5759 5759 5760 5761 5761 5761 5761 5760 5760 5758 5758 5758 5757 5758 5758 5759 5759 5759 5758 5759 5759 5759 5758 5757 5755 5755 5755 5757 5758 5758 5758 5760 5760 5757 5755 5753 5754 5755 5754 5754 5755 5755 5755 5756 5759 5761 5764 5764 5763 5762
5732 5733 5734 5734 5735 5736 5737 5737 5738 5738 5739 5740 5741 5743 5745 5746 5746 5746 5746 5746 5746 5746 5747 5748 5749 5750 5750 5750 5750 5750 5751 5752 5753 5754 5752 5752 5752 5752 5754 5754 5754 5755 5754 5754 5753 5753 5752 5752 5752 5752 5752 5753 5753 5753 5753 5752 5752 5750 5749 5748 5748 5748 5748 5750 5752 5753 5755 5754 5753 5749 5745 5747 5749 5749 5748 5748 5747 5747 5748 5750 5754 5756 5757 5757 5756
5728 5729 5729 5730 5731 5731 5732 5732 5733 5733 5733 5734 5736 5737 5738 5739 5740 5740 5739 5739 5740 5740 5741 5742 5742 5743 5743 5742 5742 5743 5744 5745 5746 5745 5745 5744 5745 5745 5746 5747 5747 5748 5747 5747 5747 5747 5747 5746 5746 5745 5745 5746 5746 5746 5747 5747 5747 5745 5742 5741 5741 5739 5739 5741 5743 5745 5747 5749 5749 5745 5740 5739 5742 5743 5743 5742 5741 5741 5742 5743 5746 5747 5748 5749 5749
5723 5724 5725 5726 5726 5727 5727 5728 5728 5728 5728 5729 5731 5732 5732 5733 5733 5732 5732 5732 5734 5735 5735 5735 5735 5735 5735 5735 5735 5736 5737 5737 5737 5737 5737 5738 5738 5738 5738 5739 5739 5740 5739 5739 5740 5740 5740 5740 5739 5738 5738 5738 5738 5739 5739 5740 5740 5739 5737 5736 5733 5732 5732 5733 5733 5733 5736 5740 5743 5740 5736 5734 5735 5736 5736 5735 5735 5736 5737 5737 5739 5740 5740 5740 5741